Temperature
15 15 15 14 15 15 15 15 15 15 15 16 16 16 16 16 16 16 16 16 16 16 16 16 16 17 17 17 17 17 17 17 17 17 17 17 17 17 17 17 18 18 18
15 14 15 14 14 14 15 15 15 15 15 15 15 15 15 15 15 15 15 15 16 16 16 16 16 17 17 17 17 17 17 17 17 17 17 17 17 17 17 17 17 17 17
15 14 14 14 14 14 15 15 15 15 15 15 15 15 15 15 15 15 15 15 15 16 16 16 16 16 17 17 17 16 17 17 17 17 17 17 17 17 17 17 17 17 17
14 14 14 14 14 14 14 14 14 15 15 15 15 15 15 15 15 15 15 15 15 15 16 16 16 16 16 16 16 16 17 17 17 17 17 17 17 17 17 17 17 17 17
14 14 14 14 14 14 14 14 14 15 15 15 15 15 15 15 15 15 15 15 15 15 15 15 16 16 16 16 16 16 17 17 17 17 17 17 17 17 17 17 17 17 17
14 14 14 14 14 14 14 14 14 14 14 14 15 15 15 15 15 15 15 15 15 15 15 15 15 15 16 16 16 16 16 16 16 17 17 17 17 17 17 17 17 17 17
14 14 14 14 14 14 14 14 14 14 14 14 15 15 15 15 15 15 15 15 15 15 15 15 15 15 15 16 16 16 16 16 16 16 17 16 16 17 17 17 17 17 17
14 14 14 14 14 14 14 14 14 14 14 14 15 15 16 16 15 15 15 15 15 15 15 15 15 15 15 15 16 16 16 16 16 16 16 16 16 16 16 16 17 17 17
14 14 14 14 14 14 14 14 14 14 14 14 14 15 16 16 15 15 15 15 14 15 15 15 15 15 15 15 15 15 16 16 16 16 16 16 16 16 16 16 16 17 17
14 14 14 14 14 14 14 14 14 14 14 14 14 14 14 14 15 15 15 15 15 14 15 15 15 15 15 15 15 15 15 16 16 16 16 16 16 16 16 16 16 16 16
14 14 14 14 14 14 14 14 14 14 14 14 14 14 14 14 15 15 15 15 15 15 14 14 14 15 15 15 15 15 15 15 15 16 16 16 16 16 16 16 16 16 16
14 14 14 14 14 14 14 14 14 14 14 14 14 14 14 14 14 14 15 15 15 14 14 14 14 14 14 14 14 15 15 15 15 15 15 16 16 16 16 16 16 16 16
14 14 14 14 14 14 14 14 14 14 14 14 14 14 14 14 14 14 14 14 14 14 14 14 14 14 14 14 14 15 15 15 15 15 15 15 15 15 16 16 16 16 16
14 14 14 14 14 14 14 14 14 14 14 14 14 14 14 14 14 14 14 14 14 15 15 14 14 14 14 14 14 14 14 15 15 15 15 15 15 15 15 15 16 16 16
14 14 14 14 14 14 14 14 14 14 14 13 13 13 13 14 14 13 13 14 14 14 15 14 14 14 14 14 14 14 14 14 14 15 15 15 15 15 15 15 15 15 15
14 14 14 14 14 14 14 14 14 14 14 14 14 14 13 13 13 13 13 13 13 14 14 14 13 13 14 14 14 14 14 14 15 15 15 15 15 15 15 15 15 15 15
14 14 14 14 14 14 14 14 14 13 13 13 13 13 13 13 13 13 13 13 13 13 13 13 13 13 13 13 14 14 14 14 14 14 14 15 15 15 15 15 15 15 15
14 14 14 14 14 14 14 13 13 13 13 13 13 13 13 13 13 13 13 13 13 13 13 13 13 13 13 13 13 13 13 13 14 14 14 14 14 14 14 15 15 15 15
14 14 14 13 13 13 13 13 13 13 13 13 13 13 13 13 13 13 13 13 13 13 13 13 13 13 13 13 13 13 13 13 13 13 14 14 14 14 14 14 14 14 15
13 13 13 13 13 13 13 13 13 13 13 13 13 13 13 13 13 13 13 13 12 12 12 12 13 13 12 13 13 13 13 13 13 13 13 13 14 14 14 14 14 14 14
13 13 13 13 13 13 13 13 13 12 12 12 12 12 13 13 13 13 12 12 12 12 12 12 12 12 12 12 12 12 12 12 13 13 13 13 13 13 13 14 14 14 14
13 13 13 12 12 12 12 13 12 12 12 12 12 12 12 12 12 12 12 12 12 12 12 12 12 12 12 12 12 12 12 12 12 12 12 12 13 13 13 13 13 14 14
13 13 12 12 12 12 12 12 12 12 12 12 12 12 12 12 12 12 12 12 12 12 12 11 11 12 11 11 11 11 11 11 12 12 12 12 12 12 12 13 13 13 13
13 12 12 12 12 12 12 12 12 11 11 11 11 11 11 11 11 11 11 11 11 11 11 11 11 11 11 11 11 11 11 11 11 11 11 11 12 12 12 12 13 13 13
12 12 12 12 11 11 11 11 11 11 11 11 11 11 11 11 11 11 11 10 11 11 11 11 11 11 11 11 11 11 10 10 11 11 11 11 11 12 12 12 12 12 13
12 12 11 11 11 11 11 11 11 10 10 10 10 10 10 10 10 10 10 10 10 10 10 10 10 10 10 10 10 10 10 10 10 11 11 11 11 11 11 12 12 12 12
Wind_Speed
4 4 3 4 4 4 2 2 2 3 3 3 3 3 2 2 2 2 2 5 4 4 3 3 3 2 1 1 2 2 2 2 2 2 2 2 2 3 4 5 7 10 11
4 4 4 4 4 4 4 3 3 2 2 2 3 3 2 2 2 2 2 3 4 4 4 3 3 3 2 1 2 3 3 3 2 2 1 1 2 2 5 6 7 9 11
5 4 4 4 4 4 3 3 3 3 2 2 2 2 2 2 2 1 2 2 2 5 4 4 3 3 3 1 1 1 2 2 2 2 1 1 2 3 4 7 8 9 11
6 5 4 4 5 4 4 3 3 2 2 2 2 2 2 2 2 2 2 2 2 3 4 6 5 4 3 2 1 1 1 2 2 2 1 1 2 3 5 7 8 10 11
6 5 4 4 5 4 4 3 3 3 3 3 2 2 2 2 2 2 2 3 3 2 2 4 4 4 4 3 3 1 0 1 1 1 2 2 2 3 5 7 9 11 12
6 5 4 5 5 4 3 3 4 3 3 2 2 2 2 2 2 3 3 3 4 3 3 3 1 4 4 3 3 2 2 1 1 1 1 2 2 4 6 7 9 11 11
6 5 4 5 4 4 4 4 3 3 3 3 1 2 2 3 3 3 3 3 3 4 3 3 2 2 2 3 3 3 2 2 0 1 1 1 1 3 6 7 8 10 10
6 5 5 4 4 3 4 4 3 3 3 3 3 1 1 2 2 3 3 3 4 3 3 4 3 2 1 1 4 3 3 3 2 2 1 1 1 3 6 6 7 8 10
5 5 5 4 4 4 4 4 4 4 3 3 4 3 2 2 1 2 3 3 4 3 3 3 4 3 2 2 2 3 3 3 2 2 1 2 2 4 5 5 5 6 8
4 5 5 4 4 4 3 4 4 3 3 3 2 3 3 2 2 1 1 3 3 3 4 3 4 4 3 3 4 4 3 3 3 2 1 2 3 3 4 4 4 5 6
4 5 5 4 4 4 4 4 4 4 3 3 3 2 2 1 2 2 1 2 2 3 3 3 3 3 3 3 2 4 3 3 2 2 1 1 2 3 3 3 4 5 6
3 4 4 4 4 4 4 4 4 4 3 3 3 2 2 2 3 2 2 3 3 3 3 2 2 3 3 2 3 4 4 3 1 1 1 0 1 2 2 3 4 5 6
3 4 4 4 4 4 4 3 3 3 3 3 3 3 3 3 3 3 3 3 3 2 2 2 2 2 2 2 2 3 2 2 2 1 1 1 1 2 3 4 4 5 7
3 4 4 4 4 3 3 3 3 3 3 3 3 3 2 3 3 3 3 3 3 2 2 3 2 3 3 2 3 3 1 1 2 2 2 2 3 3 4 5 4 4 5
3 3 3 3 3 3 3 3 2 3 3 3 3 3 2 2 3 3 3 3 3 3 3 2 2 3 4 3 2 3 2 2 1 3 4 4 4 4 5 5 5 5 6
3 3 3 3 3 3 2 2 2 3 3 3 3 3 3 2 3 3 3 3 3 3 3 3 3 4 4 4 2 4 3 1 3 3 4 4 5 5 5 5 5 5 6
2 3 3 3 3 3 3 2 3 3 3 3 3 3 3 3 3 2 3 3 3 3 4 4 4 4 5 5 3 4 4 4 3 2 3 5 5 6 6 6 6 6 7
2 2 3 3 4 3 4 3 3 3 3 4 4 3 3 3 3 3 3 4 3 3 4 5 5 4 5 5 5 4 4 4 4 2 3 5 6 6 7 7 7 7 7
1 2 2 3 3 3 3 3 3 3 4 4 4 4 4 4 4 4 4 4 4 4 4 5 5 5 5 5 5 5 5 4 5 4 4 5 6 7 8 8 8 8 8
1 1 2 2 3 3 3 4 4 4 4 4 4 5 5 5 5 5 5 5 5 5 5 5 5 5 5 5 5 5 5 4 5 5 4 4 5 7 8 8 9 8 8
1 1 2 2 3 3 4 5 5 5 4 4 5 5 5 5 6 6 5 6 6 5 5 5 5 6 5 5 5 5 6 6 6 5 5 5 5 5 6 8 9 9 9
1 1 1 2 2 3 5 7 7 5 5 5 5 5 5 4 4 4 5 6 7 7 7 7 6 7 7 7 5 6 6 6 6 4 5 6 6 6 6 6 6 8 10
1 1 2 2 2 3 5 6 7 6 6 5 6 6 5 5 5 6 5 6 7 7 8 9 10 9 9 8 8 8 7 8 8 6 6 7 7 7 6 6 7 9 10
1 1 2 2 2 3 5 6 8 6 5 5 6 6 6 7 7 8 8 8 8 7 7 8 9 10 9 9 9 9 9 9 9 8 7 8 8 8 7 7 8 10 11
1 2 2 2 3 2 4 6 8 5 5 6 6 6 6 7 8 10 9 9 9 8 6 7 9 10 11 11 10 8 8 8 9 8 7 7 8 8 8 8 8 11 13
2 2 2 3 3 4 4 6 8 5 6 6 6 6 4 6 9 10 9 9 10 10 10 9 9 10 10 10 11 11 10 10 9 8 7 7 8 7 7 7 7 7 9
Wind_Direction
18 19 23 18 7 5 4 354 343 4 347 352 351 351 359 12 357 358 64 73 30 14 10 17 26 30 73 101 93 74 101 114 101 103 116 142 155 157 168 163 162 169 169
24 15 24 20 14 9 2 348 1 353 349 1 1 1 351 4 12 10 18 94 91 57 35 26 29 38 55 94 111 105 105 114 111 103 96 132 156 161 172 173 171 172 173
24 22 16 21 16 10 8 4 11 357 3 6 8 6 16 14 16 33 27 18 82 101 72 45 37 38 41 63 100 114 115 128 136 131 121 153 164 162 169 174 169 165 168
28 20 16 20 18 13 14 15 8 15 23 9 11 16 28 43 30 24 33 43 40 45 84 73 54 48 45 47 50 101 128 133 137 154 156 166 177 176 176 173 169 164 163
26 26 20 14 18 20 19 14 22 12 23 16 19 29 29 43 45 37 38 40 50 44 43 92 92 76 64 53 48 41 121 159 171 185 175 176 195 200 184 178 172 168 168
26 24 25 22 20 24 24 25 33 25 20 15 25 51 56 76 60 45 31 41 39 34 35 33 71 110 101 70 55 45 33 2 209 173 167 197 217 213 193 178 174 173 170
26 27 21 26 16 27 23 23 28 35 26 12 12 74 93 88 67 66 40 29 41 35 33 32 25 31 125 127 81 46 25 2 174 149 123 168 211 199 183 171 171 171 172
25 22 26 26 27 26 27 24 18 5 28 12 346 344 109 123 71 60 54 38 33 35 30 31 34 36 32 69 93 71 30 19 54 107 120 135 184 179 173 166 173 175 179
26 19 19 20 17 21 28 19 11 6 6 18 13 353 352 27 26 74 47 42 35 24 25 27 29 31 39 60 74 84 52 22 34 64 110 133 143 150 156 163 171 179 184
33 23 19 19 21 23 24 18 21 7 358 6 21 8 1 356 327 6 63 45 34 27 22 21 25 33 34 56 71 59 55 47 45 49 102 141 142 147 155 169 185 192 194
37 30 21 22 26 26 22 19 17 9 6 359 1 3 3 341 312 327 345 359 16 24 19 18 20 28 23 35 54 52 48 45 49 45 53 145 168 175 177 183 200 206 207
37 34 20 21 26 26 25 21 22 27 15 9 356 357 346 334 338 333 327 334 352 359 4 15 9 23 22 25 43 33 23 20 23 37 22 323 214 212 210 209 217 217 217
32 24 18 20 25 21 23 20 25 23 24 13 3 358 352 345 340 325 315 325 329 331 349 360 17 13 9 9 31 10 10 13 7 0 338 295 253 240 235 236 241 233 225
27 16 12 19 21 19 19 25 17 18 13 15 14 2 347 348 345 337 321 316 318 327 338 352 6 3 353 347 24 314 322 62 356 335 317 294 270 257 248 238 241 243 238
23 16 13 20 25 22 16 15 16 11 5 1 360 358 353 355 345 343 327 313 308 311 326 342 339 348 339 340 339 313 313 72 325 296 289 286 280 270 264 253 240 232 238
30 17 16 19 22 24 19 14 9 2 6 9 349 346 344 343 350 339 324 315 312 305 308 326 325 324 334 316 324 314 311 266 254 260 270 274 272 268 266 262 253 234 228
31 22 24 21 20 15 12 10 2 3 354 356 348 343 338 337 327 321 320 314 304 302 297 309 314 315 312 310 309 306 301 289 275 228 266 276 270 260 258 252 251 248 237
36 33 32 25 25 20 14 7 360 352 347 345 344 339 336 331 319 314 310 304 301 296 294 304 307 312 313 314 308 296 293 291 294 257 246 266 270 265 255 248 247 247 242
46 47 38 27 22 19 16 7 1 353 343 338 335 332 329 324 315 316 305 302 302 298 290 288 299 307 302 305 306 295 288 289 287 273 241 246 258 262 255 246 242 242 240
36 30 23 18 11 6 3 360 354 347 341 336 331 329 328 327 322 319 310 308 305 298 292 287 291 294 296 299 295 293 290 281 280 280 275 267 254 246 245 241 237 237 238
9 15 8 7 6 356 1 350 340 335 332 332 329 329 337 340 339 325 316 311 306 297 292 289 290 292 291 292 291 293 291 290 281 271 273 269 258 256 245 234 231 232 233
353 354 346 357 4 3 13 349 328 326 327 327 329 327 325 320 323 297 300 301 299 294 295 291 287 286 291 293 294 285 287 289 285 272 272 275 267 264 258 253 234 225 229
348 336 333 341 343 11 11 346 328 320 319 324 325 327 328 326 320 320 299 263 266 258 265 279 283 287 290 294 291 283 278 281 284 288 282 275 265 261 257 251 225 224 229
341 323 333 331 331 357 1 341 324 311 315 317 319 322 323 326 336 328 313 306 303 297 286 276 279 285 289 291 285 282 284 282 279 271 265 271 269 266 262 253 222 220 226
316 307 316 319 318 344 12 345 321 314 312 315 319 323 324 325 346 327 311 305 303 302 286 265 278 279 282 281 277 274 270 268 271 269 257 261 267 268 264 255 234 215 223
296 296 305 307 315 327 11 347 323 314 315 317 318 314 329 331 331 323 313 306 302 306 306 295 277 267 267 262 249 254 260 263 269 272 262 254 264 266 266 255 246 233 230
Height
1552 1551 1550 1548 1547 1547 1546 1545 1545 1544 1544 1543 1543 1542 1542 1541 1540 1540 1539 1538 1538 1538 1538 1538 1538 1538 1538 1538 1537 1536 1536 1537 1537 1538 1538 1539 1540 1540 1540 1540 1540 1543 1546
1552 1551 1550 1549 1548 1547 1546 1545 1545 1544 1543 1543 1542 1541 1541 1541 1540 1540 1540 1539 1538 1538 1538 1538 1538 1538 1538 1538 1538 1537 1537 1537 1537 1537 1538 1538 1539 1539 1540 1540 1541 1543 1546
1553 1552 1551 1550 1548 1547 1546 1545 1545 1544 1543 1543 1542 1541 1541 1540 1540 1540 1540 1540 1539 1539 1538 1538 1538 1538 1538 1538 1538 1538 1537 1537 1537 1537 1538 1538 1539 1539 1540 1540 1541 1543 1545
1553 1552 1551 1550 1549 1547 1546 1545 1545 1544 1544 1543 1542 1541 1541 1540 1540 1540 1540 1540 1539 1539 1539 1538 1538 1538 1538 1537 1537 1537 1538 1537 1537 1537 1537 1537 1538 1538 1539 1540 1541 1544 1545
1554 1553 1551 1550 1549 1548 1547 1546 1545 1545 1544 1543 1542 1541 1541 1540 1540 1540 1540 1540 1540 1539 1539 1539 1538 1538 1537 1537 1537 1537 1537 1537 1536 1536 1536 1536 1537 1537 1537 1539 1541 1543 1545
1554 1553 1552 1551 1549 1549 1547 1547 1545 1545 1544 1543 1543 1542 1541 1541 1541 1540 1540 1540 1540 1539 1539 1539 1538 1538 1537 1537 1537 1537 1537 1536 1535 1535 1535 1535 1534 1534 1534 1537 1540 1542 1545
1554 1553 1552 1551 1550 1549 1548 1547 1547 1546 1545 1544 1544 1543 1542 1542 1542 1541 1540 1540 1540 1539 1539 1539 1538 1538 1537 1537 1537 1536 1536 1535 1535 1534 1534 1533 1532 1530 1531 1535 1539 1542 1545
1555 1554 1553 1552 1551 1549 1548 1548 1547 1546 1546 1545 1545 1544 1543 1544 1543 1542 1541 1541 1540 1540 1539 1539 1538 1538 1537 1537 1537 1536 1535 1535 1534 1534 1534 1533 1531 1528 1529 1534 1538 1541 1544
1556 1555 1554 1553 1551 1551 1549 1548 1547 1547 1546 1546 1545 1545 1544 1543 1543 1543 1542 1542 1541 1540 1540 1539 1538 1538 1537 1537 1536 1536 1535 1535 1535 1535 1535 1534 1532 1531 1532 1535 1538 1541 1544
1556 1555 1554 1553 1552 1551 1550 1549 1548 1547 1547 1546 1546 1545 1545 1545 1544 1544 1543 1542 1541 1540 1540 1539 1538 1538 1537 1536 1536 1536 1536 1535 1535 1535 1535 1535 1535 1534 1535 1537 1539 1541 1543
1557 1556 1555 1554 1553 1552 1551 1550 1549 1548 1548 1547 1547 1546 1545 1545 1545 1544 1543 1543 1542 1541 1540 1539 1538 1538 1537 1536 1536 1536 1535 1535 1535 1535 1535 1536 1536 1536 1537 1538 1539 1540 1542
1558 1557 1556 1555 1554 1553 1552 1550 1550 1549 1548 1547 1547 1546 1546 1546 1545 1544 1543 1542 1542 1541 1540 1539 1538 1537 1537 1536 1536 1535 1535 1535 1535 1535 1535 1535 1536 1536 1537 1538 1538 1539 1540
1559 1558 1557 1556 1555 1553 1552 1551 1550 1550 1549 1548 1547 1547 1546 1546 1545 1544 1543 1542 1541 1541 1540 1539 1538 1537 1537 1536 1535 1535 1534 1535 1534 1534 1535 1535 1535 1535 1536 1536 1537 1538 1538
1560 1558 1557 1556 1555 1554 1553 1552 1551 1550 1550 1549 1548 1547 1546 1545 1545 1544 1543 1543 1541 1541 1540 1540 1538 1537 1536 1535 1534 1534 1534 1533 1533 1533 1533 1533 1534 1534 1534 1535 1535 1536 1536
1560 1559 1558 1557 1556 1554 1553 1552 1552 1551 1550 1549 1548 1547 1546 1545 1545 1544 1543 1542 1542 1540 1540 1539 1538 1536 1535 1534 1533 1533 1533 1532 1532 1532 1531 1532 1532 1532 1532 1533 1533 1534 1534
1560 1559 1558 1557 1556 1555 1554 1553 1552 1551 1550 1549 1548 1547 1546 1546 1544 1543 1542 1542 1541 1541 1539 1538 1537 1536 1534 1533 1532 1531 1531 1530 1530 1530 1529 1529 1529 1530 1530 1530 1531 1531 1532
1559 1559 1558 1557 1556 1555 1554 1553 1552 1551 1550 1550 1548 1547 1546 1545 1544 1543 1542 1541 1540 1539 1538 1537 1536 1534 1533 1532 1531 1530 1529 1528 1528 1527 1526 1526 1526 1527 1527 1528 1528 1528 1529
1559 1558 1558 1557 1556 1555 1554 1553 1552 1551 1550 1549 1548 1547 1546 1544 1543 1543 1541 1540 1539 1538 1537 1535 1534 1533 1532 1530 1529 1528 1527 1527 1525 1524 1524 1523 1523 1524 1524 1524 1525 1525 1525
1558 1558 1557 1556 1555 1554 1553 1552 1551 1550 1549 1549 1548 1546 1545 1544 1543 1542 1540 1540 1538 1537 1535 1534 1532 1531 1530 1529 1527 1526 1525 1524 1523 1522 1521 1520 1520 1520 1520 1520 1521 1521 1521
1557 1557 1556 1555 1554 1554 1553 1552 1551 1549 1548 1547 1546 1545 1544 1543 1542 1540 1539 1538 1537 1535 1534 1532 1531 1529 1528 1526 1525 1524 1523 1522 1520 1520 1519 1517 1517 1516 1516 1516 1516 1517 1517
1557 1556 1555 1554 1553 1552 1551 1550 1549 1548 1547 1546 1545 1543 1542 1540 1539 1538 1537 1536 1534 1533 1532 1530 1529 1527 1526 1524 1523 1522 1520 1519 1518 1517 1516 1515 1514 1513 1512 1512 1512 1512 1513
1555 1555 1554 1553 1552 1551 1550 1549 1548 1547 1546 1544 1543 1541 1540 1538 1537 1535 1534 1533 1532 1531 1529 1528 1527 1525 1524 1522 1520 1519 1518 1516 1515 1514 1513 1511 1511 1509 1509 1508 1507 1507 1508
1554 1553 1553 1552 1551 1550 1548 1547 1546 1545 1544 1542 1541 1539 1538 1536 1534 1533 1531 1530 1528 1527 1526 1525 1524 1522 1521 1519 1518 1516 1514 1513 1512 1511 1509 1507 1507 1505 1505 1504 1503 1503 1503
1552 1552 1551 1550 1549 1548 1546 1545 1544 1543 1542 1540 1539 1537 1535 1533 1532 1530 1528 1527 1526 1524 1522 1521 1519 1518 1516 1515 1514 1512 1510 1509 1507 1506 1505 1504 1502 1501 1500 1499 1498 1497 1497
1550 1550 1549 1548 1547 1546 1544 1543 1541 1540 1539 1538 1536 1534 1533 1531 1528 1526 1525 1523 1521 1520 1518 1516 1514 1512 1511 1509 1508 1507 1506 1505 1503 1502 1501 1499 1498 1497 1495 1494 1493 1492 1492
1548 1547 1547 1546 1545 1544 1542 1541 1539 1538 1537 1535 1533 1531 1529 1527 1525 1523 1522 1520 1518 1516 1514 1511 1509 1508 1506 1504 1503 1502 1501 1500 1498 1497 1496 1495 1493 1493 1491 1489 1488 1487 1486